{"data":{"norad_id":69533,"intl_designator":"2026-133AB","name":"STARLINK-37890","alt_names":[],"object_type":"PAYLOAD","status":"ACTIVE","operator":null,"country":"US","launch_date":"2026-06-12","launch_site_code":"AFETR","launch_vehicle":null,"mission":null,"orbit_class":"UNKNOWN","rcs_meters":null,"size_class":null,"mass_kg":null,"dimensions":null,"purposes":["comms"],"wikipedia_slug":null,"has_3d_model":false,"image_url":null,"decayed_at":null,"tle_current":{"epoch":"2026-09-19T22:35:55.402080Z","epoch_age_seconds":73741,"freshness":"FRESH","line1":"1 69533U 26133AB  26262.94161345  .00011525  00000+0  35173-3 0  9997","line2":"2 69533  53.1523 232.6396 0002049  97.9591 262.1644 15.34397046 16670","mean_motion":15.34397046,"eccentricity":0.0002049,"inclination_deg":53.1523,"raan_deg":232.6396,"arg_perigee_deg":97.9591,"mean_anomaly_deg":262.1644,"bstar":0.00035173,"rev_number":1667,"period_min":93.847938755742,"perigee_km":461.31033016749,"apogee_km":464.11371009594,"semimajor_km":6840.8490201317,"source":"CELESTRAK","updated_at":"2026-09-20T09:00:44.240481Z"}}}